W4SNA-2 Weather Reports


Display with metric or nautical units.
time (UTC)temp
F
wind
direction
speed
MPH
gust
MPH
rain 1hr
in
rain 24hr
in
rain mn
in
humidity
%
barometer
mb
20190617123019 74 0 0.0 3.0 0.00 0.00 0.00 87 1018.7
20190617122505 74 215 1.0 4.0 0.00 0.00 0.00 87 1018.7
20190617122000 74 203 1.0 5.0 0.00 0.00 0.00 86 1018.6
20190617121507 74 206 1.0 6.0 0.00 0.00 0.00 87 1018.6
20190617121000 74 252 1.0 6.0 0.00 0.00 0.00 86 1018.6
20190617120457 74 231 1.0 4.0 0.00 0.00 0.00 86 1018.6
20190617120002 74 215 1.0 4.0 0.00 0.00 0.00 86 1018.6
20190617115502 74 230 1.0 3.0 0.00 0.00 0.00 85 1018.6
20190617114721 74 252 1.0 8.0 0.00 0.00 0.00 86 1018.5
20190617114214 73 244 2.0 8.0 0.00 0.00 0.00 86 1018.5
20190617113716 73 262 3.0 8.0 0.00 0.00 0.00 86 1018.4
20190617113219 73 251 2.0 7.0 0.00 0.00 0.00 87 1018.4
20190617112716 72 261 1.0 9.0 0.00 0.00 0.00 88 1018.4
20190617111712 72 241 3.0 9.0 0.00 0.00 0.00 88 1018.0
20190617111215 72 252 3.0 9.0 0.00 0.00 0.00 88 1018.0
20190617110712 72 243 3.0 7.0 0.00 0.00 0.00 88 1018.0
20190617110213 72 234 1.0 10.0 0.00 0.00 0.00 89 1018.0
20190617105716 71 245 3.0 10.0 0.00 0.00 0.00 89 1018.0
20190617105213 71 266 3.0 10.0 0.00 0.00 0.00 89 1018.0
20190617104719 71 239 3.0 8.0 0.00 0.00 0.00 89 1018.0
20190617104032 71 254 4.0 11.0 0.00 0.00 0.00 89 1018.0
20190617103530 71 262 4.0 12.0 0.00 0.00 0.00 90 1018.0
20190617103030 71 248 5.0 12.0 0.00 0.00 0.00 90 1018.0
20190617102149 70 255 4.0 8.0 0.00 0.00 0.00 91 1017.9
20190617101559 70 241 4.0 13.0 0.00 0.00 0.00 91 1017.9
20190617100746 70 248 5.0 14.0 0.00 0.00 0.00 91 1017.6
20190617100251 70 269 2.0 11.0 0.00 0.00 0.00 91 1017.6
20190617095746 70 251 2.0 12.0 0.00 0.00 0.00 91 1017.6
20190617094751 70 251 3.0 10.0 0.00 0.00 0.00 91 1017.5
20190617094143 70 253 2.0 8.0 0.00 0.00 0.00 91 1017.5
20190617093644 70 271 3.0 9.0 0.00 0.00 0.00 90 1017.4
20190617093151 71 278 3.0 9.0 0.00 0.00 0.00 90 1017.4
20190617092206 71 263 3.0 11.0 0.00 0.00 0.00 90 1017.5
20190617091706 71 258 3.0 11.0 0.00 0.00 0.00 90 1017.5
20190617091206 71 255 4.0 9.0 0.00 0.00 0.00 90 1017.5
20190617090706 71 216 2.0 9.0 0.00 0.00 0.00 89 1017.3
20190617090206 71 222 3.0 9.0 0.00 0.00 0.00 89 1017.3
20190617085709 71 223 2.0 8.0 0.00 0.00 0.00 89 1017.3
20190617085218 71 222 3.0 13.0 0.00 0.00 0.00 88 1017.1
20190617084729 71 226 3.0 13.0 0.00 0.00 0.00 88 1017.1
20190617084006 71 237 2.0 13.0 0.00 0.00 0.00 88 1017.1
20190617083506 71 208 2.0 13.0 0.00 0.00 0.00 88 1017.0
20190617083006 71 233 4.0 10.0 0.00 0.00 0.00 89 1017.0
20190617082506 71 233 4.0 15.0 0.00 0.00 0.00 89 1017.0
20190617082006 71 249 4.0 15.0 0.00 0.00 0.00 90 1017.0
20190617081507 71 256 3.0 13.0 0.00 0.00 0.00 90 1017.0
20190617081006 70 231 5.0 13.0 0.00 0.00 0.00 91 1017.0
20190617080506 70 234 5.0 13.0 0.00 0.00 0.00 91 1017.0
20190617080007 70 225 3.0 13.0 0.00 0.00 0.00 92 1017.0
20190617075511 70 229 2.0 9.0 0.00 0.00 0.00 92 1017.0
20190617075006 70 198 3.0 10.0 0.00 0.00 0.00 92 1017.0
20190617074509 70 215 3.0 10.0 0.00 0.00 0.00 92 1017.0
20190617074006 70 208 2.0 11.0 0.00 0.00 0.00 92 1017.0
20190617073510 70 210 3.0 11.0 0.00 0.00 0.00 92 1017.0
20190617072317 70 209 1.0 6.0 0.00 0.00 0.00 91 1017.0
20190617071821 70 209 1.0 5.0 0.00 0.00 0.00 90 1017.0
20190617071250 71 225 2.0 9.0 0.00 0.00 0.00 90 1017.0
20190617071105 71 225 2.0 9.0 0.00 0.00 0.00 90 1017.0
20190617070607 71 211 2.0 10.0 0.00 0.00 0.00 90 1017.0
20190617070118 71 226 2.0 15.0 0.00 0.00 0.00 89 1017.0
20190617065607 71 195 4.0 15.0 0.00 0.00 0.00 89 1017.0
20190617065111 71 218 1.0 11.0 0.00 0.00 0.00 89 1017.1
20190617064605 71 214 1.0 8.0 0.00 0.00 0.00 89 1017.1
20190617064123 71 213 3.0 8.0 0.00 0.00 0.00 89 1017.1
20190617063150 71 250 1.0 9.0 0.00 0.00 0.00 89 1017.1
20190617062638 71 216 3.0 10.0 0.00 0.00 0.00 89 1017.1
20190617062130 71 231 2.0 11.0 0.00 0.00 0.00 89 1017.7
20190617061632 71 227 4.0 11.0 0.00 0.00 0.00 89 1017.7
20190617061135 71 220 3.0 7.0 0.00 0.00 0.00 89 1017.7
20190617060611 71 208 2.0 9.0 0.00 0.00 0.00 89 1017.7
20190617060110 71 0 0.0 9.0 0.00 0.00 0.00 88 1017.7
20190617055404 71 200 2.0 8.0 0.00 0.00 0.00 88 1017.7
20190617054857 71 205 2.0 8.0 0.00 0.00 0.00 88 1017.8
20190617054359 71 204 2.0 8.0 0.00 0.00 0.00 87 1017.8
20190617053858 72 167 1.0 13.0 0.00 0.00 0.00 87 1017.8
20190617053408 72 213 2.0 13.0 0.00 0.00 0.00 87 1017.8
20190617052858 72 193 1.0 7.0 0.00 0.00 0.00 87 1017.8
20190617052404 72 201 1.0 7.0 0.00 0.00 0.00 86 1017.8
20190617051857 72 202 2.0 7.0 0.00 0.00 0.00 86 1017.1
20190617051409 72 197 3.0 10.0 0.00 0.00 0.00 85 1017.1
20190617050857 72 175 2.0 10.0 0.00 0.00 0.00 85 1017.1
20190617050408 72 206 3.0 10.0 0.00 0.00 0.00 85 1017.3
20190617045858 72 205 2.0 8.0 0.00 0.00 0.00 85 1017.3
20190617045048 73 194 3.0 7.0 0.00 0.00 0.00 84 1017.4
20190617044547 73 221 2.0 7.0 0.00 0.00 0.00 84 1017.4
20190617044047 73 206 2.0 7.0 0.00 0.00 0.00 83 1017.4
20190617043547 73 200 1.0 15.0 0.00 0.00 0.00 83 1017.7
20190617043056 73 203 3.0 15.0 0.00 0.00 0.00 83 1017.7
20190617042547 73 202 2.0 9.0 0.00 0.00 0.00 83 1017.7
20190617042047 73 198 1.0 7.0 0.00 0.00 0.00 83 1017.6
20190617041557 73 182 2.0 7.0 0.00 0.00 0.00 83 1017.6
20190617041048 73 224 1.0 8.0 0.00 0.00 0.00 82 1017.6
20190617040550 73 190 3.0 8.0 0.00 0.00 0.00 82 1017.9
20190617040047 73 205 3.0 7.0 0.00 0.00 0.00 82 1017.9
20190617035547 73 208 3.0 10.0 0.00 0.00 0.00 82 1017.9
20190617035047 73 220 3.0 10.0 0.00 0.00 0.00 82 1017.5
20190617034547 73 201 3.0 9.0 0.00 0.00 0.00 81 1017.5
20190617034047 74 186 2.0 9.0 0.00 0.00 0.00 81 1017.5
20190617033547 74 192 3.0 9.0 0.00 0.00 0.00 81 1017.4
20190617033050 74 206 2.0 9.0 0.00 0.00 0.00 80 1017.4
20190617032550 74 218 3.0 8.0 0.00 0.00 0.00 80 1017.4
20190617031915 74 216 2.0 9.0 0.00 0.00 0.00 80 1017.3
20190617031419 74 196 2.0 5.0 0.00 0.00 0.00 80 1017.3
20190617030548 74 182 2.0 8.0 0.00 0.00 0.00 79 1017.1
20190617030050 74 195 2.0 9.0 0.00 0.00 0.00 79 1017.1
20190617025549 74 171 2.0 9.0 0.00 0.00 0.00 79 1017.1
20190617025047 74 207 2.0 5.0 0.00 0.00 0.00 80 1016.9
20190617024548 74 203 2.0 5.0 0.00 0.00 0.00 80 1016.9
20190617024047 74 195 2.0 6.0 0.00 0.00 0.00 79 1016.9
20190617023548 74 201 2.0 6.0 0.00 0.00 0.00 79 1016.8
20190617023048 74 187 1.0 5.0 0.00 0.00 0.00 80 1016.8
20190617022548 74 198 1.0 5.0 0.00 0.00 0.00 80 1016.8
20190617022048 74 173 1.0 5.0 0.00 0.00 0.00 79 1016.7
20190617021548 74 209 1.0 5.0 0.00 0.00 0.00 79 1016.7
20190617021057 74 162 1.0 5.0 0.00 0.00 0.00 79 1016.7
20190617020547 75 0 0.0 7.0 0.00 0.00 0.00 78 1016.3
20190617020047 75 205 2.0 7.0 0.00 0.00 0.00 77 1016.3
20190617015548 75 176 1.0 7.0 0.00 0.00 0.00 77 1016.3
20190617015048 75 177 1.0 7.0 0.00 0.00 0.00 77 1016.0
20190617014548 75 164 2.0 7.0 0.00 0.00 0.00 76 1016.0
20190617013645 75 214 2.0 7.0 0.00 0.00 0.00 76 1015.9
20190617013145 75 183 2.0 7.0 0.00 0.00 0.00 76 1015.9
20190617012645 75 184 1.0 7.0 0.00 0.00 0.00 76 1015.9
20190617012145 75 208 1.0 7.0 0.00 0.00 0.00 76 1016.0
20190617011645 75 174 2.0 6.0 0.00 0.00 0.00 76 1016.0
20190617011145 75 201 2.0 5.0 0.00 0.00 0.00 76 1016.0
20190617010453 75 202 1.0 6.0 0.00 0.00 0.00 78 1015.8
20190617005942 75 177 1.0 6.0 0.00 0.00 0.00 79 1015.8
20190617005442 75 172 1.0 4.0 0.00 0.00 0.00 80 1015.8
20190617004942 75 179 1.0 4.0 0.00 0.00 0.00 79 1015.7
20190617004501 75 170 1.0 4.0 0.00 0.00 0.00 78 1015.7
20190617003940 75 203 1.0 4.0 0.00 0.00 0.00 79 1015.7
20190617003440 75 0 0.0 3.0 0.00 0.00 0.00 79 1015.8
20190617002941 75 0 0.0 3.0 0.00 0.00 0.00 79 1015.8
20190617002210 76 0 0.0 4.0 0.00 0.00 0.00 78 1016.3
20190617001711 76 0 0.0 4.0 0.00 0.00 0.00 78 1016.3
20190617001210 76 0 0.0 3.0 0.00 0.00 0.00 77 1016.3
20190617000712 76 0 0.0 7.0 0.00 0.00 0.00 77 1016.4
20190617000210 76 0 0.0 7.0 0.00 0.00 0.00 77 1016.4
20190616235711 76 0 0.0 3.0 0.00 0.00 0.00 78 1016.4
20190616235211 76 0 0.0 8.0 0.00 0.00 0.00 78 1016.3
20190616234710 76 213 1.0 8.0 0.00 0.00 0.00 77 1016.3
20190616234210 76 0 0.0 7.0 0.00 0.00 0.00 77 1016.3
20190616233710 76 173 1.0 7.0 0.00 0.00 0.00 77 1016.3
20190616233210 76 176 1.0 4.0 0.00 0.00 0.00 78 1016.3
20190616232343 76 0 0.0 5.0 0.00 0.00 0.00 78 1016.3
20190616231848 76 0 0.0 3.0 0.00 0.00 0.00 78 1016.3
20190616230736 76 184 1.0 4.0 0.00 0.00 0.00 78 1016.3
20190616230234 76 0 0.0 4.0 0.00 0.00 0.00 78 1016.3
20190616225734 76 192 1.0 4.0 0.00 0.00 0.00 78 1016.3
20190616225234 77 0 0.0 4.0 0.00 0.00 0.00 78 1016.4
20190616224733 77 194 1.0 6.0 0.00 0.00 0.00 77 1016.4
20190616224233 77 195 1.0 6.0 0.00 0.00 0.00 77 1016.4
20190616223733 77 0 0.0 1.0 0.00 0.00 0.00 77 1016.4
20190616223235 77 0 0.0 4.0 0.00 0.00 0.00 77 1016.4
20190616222733 77 0 0.0 4.0 0.00 0.00 0.00 77 1016.4
20190616222234 77 0 0.0 3.0 0.00 0.00 0.00 77 1016.3
20190616221344 77 0 0.0 3.0 0.00 0.00 0.00 76 1016.3
20190616220411 77 0 0.0 6.0 0.00 0.00 0.00 75 1016.4
20190616215910 77 156 1.0 7.0 0.00 0.00 0.00 75 1016.4
20190616215412 77 211 1.0 7.0 0.00 0.00 0.00 74 1016.4
20190616214911 78 211 1.0 6.0 0.00 0.00 0.00 74 1016.5
20190616214410 78 0 0.0 4.0 0.00 0.00 0.00 75 1016.5
20190616213913 78 189 1.0 4.0 0.00 0.00 0.00 74 1016.5
20190616213410 78 166 1.0 4.0 0.00 0.00 0.00 74 1016.6
20190616212909 78 0 0.0 5.0 0.00 0.00 0.00 74 1016.6
20190616212411 78 0 0.0 5.0 0.00 0.00 0.00 74 1016.6
20190616211910 78 0 0.0 3.0 0.00 0.00 0.00 75 1016.3
20190616211410 78 0 0.0 3.0 0.00 0.00 0.00 75 1016.3
20190616210910 78 0 0.0 3.0 0.00 0.00 0.00 75 1016.3
20190616210410 78 0 0.0 5.0 0.00 0.00 0.00 76 1016.3
20190616205910 78 199 1.0 7.0 0.00 0.00 0.00 74 1016.3
20190616205424 78 204 1.0 7.0 0.00 0.00 0.00 74 1016.3
20190616204909 78 0 0.0 3.0 0.00 0.00 0.00 75 1016.6
20190616204410 78 0 0.0 7.0 0.00 0.00 0.00 75 1016.6
20190616203910 78 201 1.0 7.0 0.00 0.00 0.00 72 1016.6
20190616203245 79 0 0.0 7.0 0.00 0.00 0.00 73 1016.9
20190616202702 78 0 0.0 4.0 0.00 0.00 0.00 75 1016.9
20190616202202 77 192 1.0 4.0 0.00 0.00 0.00 75 1016.9
20190616201702 77 0 0.0 6.0 0.00 0.00 0.00 74 1016.9
20190616201202 77 0 0.0 6.0 0.00 0.00 0.00 74 1016.9
20190616200702 77 210 1.0 6.0 0.00 0.00 0.00 74 1016.9
20190616200202 78 0 0.0 6.0 0.00 0.00 0.00 74 1016.9
20190616195702 78 0 0.0 6.0 0.00 0.00 0.00 73 1016.9
20190616195203 79 213 2.0 5.0 0.00 0.00 0.00 69 1016.9
20190616194702 79 0 0.0 6.0 0.00 0.00 0.00 72 1016.9
20190616194202 79 0 0.0 6.0 0.00 0.00 0.00 74 1016.9
20190616193702 79 0 0.0 5.0 0.00 0.00 0.00 71 1017.0
20190616193202 79 0 0.0 3.0 0.00 0.00 0.00 73 1017.0
20190616192702 79 0 0.0 3.0 0.00 0.00 0.00 71 1017.0
20190616192201 79 0 0.0 2.0 0.00 0.00 0.00 71 1017.0
20190616191702 79 0 0.0 2.0 0.00 0.00 0.00 72 1017.0
20190616190905 79 170 1.0 5.0 0.00 0.00 0.00 73 1017.0
20190616190405 78 0 0.0 5.0 0.00 0.00 0.00 73 1017.0
20190616185829 78 172 1.0 4.0 0.00 0.00 0.00 71 1017.0
20190616185330 78 0 0.0 3.0 0.00 0.00 0.00 72 1017.2
20190616184831 79 0 0.0 3.0 0.00 0.00 0.00 70 1017.2
20190616184333 78 0 0.0 3.0 0.00 0.00 0.00 73 1017.2
20190616183830 78 0 0.0 3.0 0.00 0.00 0.00 73 1017.2
20190616183326 77 168 1.0 4.0 0.00 0.00 0.00 73 1017.2
20190616182829 77 210 1.0 4.0 0.00 0.00 0.00 74 1017.2
20190616182331 77 185 1.0 3.0 0.00 0.00 0.00 74 1017.1
20190616181826 76 180 1.0 3.0 0.00 0.00 0.00 75 1017.1
20190616181326 76 0 0.0 4.0 0.00 0.00 0.00 76 1017.1
20190616180829 76 182 1.0 4.0 0.00 0.00 0.00 75 1017.3
20190616180326 76 176 1.0 5.0 0.00 0.00 0.00 75 1017.3
20190616175826 76 0 0.0 5.0 0.00 0.00 0.00 76 1017.3
20190616175329 76 0 0.0 2.0 0.00 0.00 0.00 75 1017.4
20190616174511 77 0 0.0 7.0 0.00 0.00 0.00 76 1017.4
20190616174006 77 168 2.0 7.0 0.00 0.00 0.00 74 1017.4
20190616173506 77 0 0.0 5.0 0.00 0.00 0.00 73 1017.7
20190616173006 77 168 1.0 5.0 0.00 0.00 0.00 70 1017.7
20190616172506 77 0 0.0 3.0 0.00 0.00 0.00 73 1017.7
20190616172006 77 0 0.0 3.0 0.00 0.00 0.00 73 1017.9
20190616171509 77 0 0.0 6.0 0.00 0.00 0.00 75 1017.9
20190616171007 77 180 1.0 6.0 0.00 0.00 0.00 71 1017.9
20190616170507 78 0 0.0 3.0 0.00 0.00 0.00 72 1018.2
20190616170007 78 0 0.0 3.0 0.00 0.00 0.00 71 1018.2
20190616165511 78 0 0.0 3.0 0.00 0.00 0.00 70 1018.2
20190616164825 77 0 0.0 3.0 0.00 0.00 0.00 72 1018.2
20190616164326 77 0 0.0 3.0 0.00 0.00 0.00 73 1018.2
20190616163830 77 0 0.0 3.0 0.00 0.00 0.00 74 1018.2
20190616163326 77 0 0.0 3.0 0.00 0.00 0.00 70 1018.2
20190616162826 76 165 1.0 3.0 0.00 0.00 0.00 72 1018.2
20190616162335 76 177 1.0 3.0 0.00 0.00 0.00 73 1018.2
20190616161826 76 179 1.0 3.0 0.00 0.00 0.00 72 1018.2
20190616161326 76 0 0.0 4.0 0.00 0.00 0.00 76 1018.2
20190616160829 75 168 1.0 4.0 0.00 0.00 0.00 73 1018.4
20190616160327 76 152 1.0 3.0 0.00 0.00 0.00 72 1018.4
20190616155827 76 0 0.0 2.0 0.00 0.00 0.00 74 1018.4
20190616155247 76 0 0.0 2.0 0.00 0.00 0.00 77 1018.6
20190616154744 76 0 0.0 4.0 0.00 0.00 0.00 72 1018.6
20190616154245 76 0 0.0 4.0 0.00 0.00 0.00 76 1018.6
20190616153743 76 178 1.0 3.0 0.00 0.00 0.00 75 1018.4
20190616153246 75 0 0.0 3.0 0.00 0.00 0.00 74 1018.4
20190616152743 75 0 0.0 3.0 0.00 0.00 0.00 75 1018.4
20190616152249 74 0 0.0 3.0 0.00 0.00 0.00 76 1018.4
20190616151743 74 0 0.0 3.0 0.00 0.00 0.00 77 1018.4
20190616151246 74 0 0.0 2.0 0.00 0.00 0.00 79 1018.4
20190616150743 73 0 0.0 3.0 0.00 0.00 0.00 79 1018.6
20190616150246 73 193 1.0 3.0 0.00 0.00 0.00 77 1018.6
20190616145749 73 0 0.0 4.0 0.00 0.00 0.00 77 1018.6
20190616145245 73 189 1.0 5.0 0.00 0.00 0.00 76 1018.8
20190616144743 73 196 2.0 6.0 0.00 0.00 0.00 77 1018.8
20190616144244 73 185 1.0 8.0 0.00 0.00 0.00 77 1018.8
20190616143743 73 215 1.0 8.0 0.00 0.00 0.00 75 1018.4
20190616142845 73 190 3.0 8.0 0.00 0.00 0.00 76 1018.4
20190616142352 73 0 0.0 5.0 0.00 0.00 0.00 80 1018.4
20190616141845 72 201 1.0 5.0 0.00 0.00 0.00 81 1018.7
20190616141352 71 0 0.0 5.0 0.00 0.00 0.00 79 1018.7
20190616140846 70 183 1.0 4.0 0.00 0.00 0.00 82 1018.7
20190616140351 69 217 1.0 4.0 0.00 0.00 0.00 82 1018.5
20190616135848 69 162 1.0 4.0 0.00 0.00 0.00 80 1018.5
20190616135245 70 221 1.0 6.0 0.00 0.00 0.00 80 1018.7
20190616134742 70 205 1.0 6.0 0.00 0.00 0.00 78 1018.7
20190616134244 71 178 1.0 5.0 0.00 0.00 0.00 76 1018.7
20190616133745 70 224 2.0 8.0 0.00 0.00 0.00 77 1018.6
20190616133246 70 254 2.0 8.0 0.00 0.00 0.00 78 1018.6
20190616132742 70 189 2.0 17.0 0.00 0.00 0.00 76 1018.6
20190616132244 70 208 2.0 17.0 0.00 0.00 0.00 77 1018.5
20190616131744 69 221 2.0 9.0 0.00 0.00 0.00 78 1018.5
20190616131245 69 193 2.0 9.0 0.00 0.00 0.00 79 1018.5
20190616130742 69 235 3.0 8.0 0.00 0.00 0.00 78 1018.5
20190616130230 68 216 2.0 8.0 0.00 0.00 0.00 77 1018.5
20190616125730 68 212 3.0 11.0 0.00 0.00 0.00 78 1018.5
20190616125228 67 202 2.0 12.0 0.00 0.00 0.00 79 1018.3
20190616124728 66 228 3.0 16.0 0.00 0.00 0.00 80 1018.3
20190616124231 66 224 4.0 16.0 0.00 0.00 0.00 80 1018.3
20190616123729 66 228 2.0 10.0 0.00 0.00 0.00 80 1018.0